Location: Hoyos del Collado
(40.3594°N, 5.2003°W)
Time: 20:28:10
(UTC+00:00)

CZ-4C R/B - Visible Passes

Search period start: 18 July 2024 00:00
Search period end: 28 July 2024 00:00
Orbit: 445 x 579 km, 98.0° (Epoch: 17 July)

Date Brightness Start Highest point End Pass type
(mag) Time Alt. Az. Time Alt. Az. Time Alt. Az.
18 Jul 3.3 21:18:20 10° N 21:21:55 67° WNW 21:25:20 10° SSW visible
19 Jul 2.9 21:02:22 10° NNE 21:05:56 71° ESE 21:09:15 11° S visible
20 Jul 3.4 20:46:30 10° NNE 20:49:52 40° E 20:52:56 11° S visible
20 Jul 6.2 22:22:10 10° NW 22:23:22 11° WNW 22:24:33 10° W visible
21 Jul 4.1 20:30:49 10° NE 20:33:44 24° E 20:36:35 10° SSE visible
21 Jul 5.8 22:05:05 10° NNW 22:07:29 17° WNW 22:09:50 10° WSW visible
22 Jul 4.7 20:15:26 10° NE 20:17:34 15° E 20:19:38 10° SE visible
22 Jul 5.1 21:48:33 10° N 21:51:33 27° WNW 21:54:28 10° SW visible
23 Jul 4.1 21:32:11 10° N 21:35:33 44° WNW 21:38:44 10° SW visible
24 Jul 3.0 21:16:00 10° N 21:19:28 77° WNW 21:22:19 14° SSW visible
25 Jul 2.9 20:59:54 10° NNE 21:03:20 60° E 21:05:53 16° S visible
26 Jul 3.6 20:43:57 10° NNE 20:47:07 34° E 20:49:26 15° SSE visible
26 Jul 6.0 22:19:13 10° NW 22:20:42 12° WNW 22:22:09 10° W visible
27 Jul 4.3 20:28:12 10° NE 20:30:52 21° E 20:32:56 13° SE visible
27 Jul 5.6 22:02:10 10° NNW 22:04:40 19° WNW 22:07:07 10° WSW visible
